Time,TemperatureF,DewpointF,PressureIn,WindDirection,WindDirectionDegrees,WindSpeedMPH,WindSpeedGustMPH,Humidity,HourlyPrecipIn,Conditions,Clouds,dailyrainin,SoftwareType,DateUTC
2013-02-21 00:09:00,47.8,37.0,30.06,North,10,1.0,4.9,66,0.00,,,-99.99,FreeWX-Wi 1.01,2013-02-21 08:09:00,
2013-02-21 00:19:00,47.7,36.5,30.06,North,359,1.0,4.0,65,0.00,,,-99.99,FreeWX-Wi 1.01,2013-02-21 08:19:00,
2013-02-21 00:29:00,47.7,36.1,30.06,North,358,1.0,4.9,64,0.00,,,-99.99,FreeWX-Wi 1.01,2013-02-21 08:29:00,
2013-02-21 00:39:00,47.7,36.5,30.06,North,-999,0.0,3.1,65,0.00,,,-99.99,FreeWX-Wi 1.01,2013-02-21 08:39:00,
2013-02-21 00:49:00,47.5,36.3,30.06,North,-999,0.0,4.0,65,0.00,,,-99.99,FreeWX-Wi 1.01,2013-02-21 08:49:00,
2013-02-21 00:59:00,47.3,35.8,30.09,North,-999,0.0,4.9,64,0.00,,,-99.99,FreeWX-Wi 1.01,2013-02-21 08:59:00,
2013-02-21 01:09:00,47.3,35.4,30.06,North,7,1.0,4.0,63,0.00,,,-99.99,FreeWX-Wi 1.01,2013-02-21 09:09:00,
2013-02-21 01:19:00,47.3,34.5,30.06,North,351,1.0,5.4,61,0.00,,,-99.99,FreeWX-Wi 1.01,2013-02-21 09:19:00,
2013-02-21 01:29:00,47.3,33.6,30.09,NNW,335,1.0,5.8,59,0.00,,,-99.99,FreeWX-Wi 1.01,2013-02-21 09:29:00,
2013-02-21 01:39:00,47.3,33.6,30.06,NNW,336,1.0,3.6,59,0.00,,,-99.99,FreeWX-Wi 1.01,2013-02-21 09:39:00,
2013-02-21 01:49:00,47.3,34.2,30.06,North,-999,0.0,3.6,60,0.00,,,-99.99,FreeWX-Wi 1.01,2013-02-21 09:49:00,
2013-02-21 01:59:00,47.1,34.7,30.06,North,-999,0.0,4.9,62,0.00,,,-99.99,FreeWX-Wi 1.01,2013-02-21 09:59:00,
2013-02-21 02:09:00,47.1,34.7,30.09,North,-999,0.0,2.2,62,0.00,,,-99.99,FreeWX-Wi 1.01,2013-02-21 10:09:00,
2013-02-21 02:19:00,46.9,34.5,30.09,North,-999,0.0,4.9,62,0.00,,,-99.99,FreeWX-Wi 1.01,2013-02-21 10:19:00,
2013-02-21 02:29:00,46.8,34.5,30.06,North,-999,0.0,3.1,62,0.00,,,-99.99,FreeWX-Wi 1.01,2013-02-21 10:29:00,
2013-02-21 02:39:00,46.8,34.5,30.06,North,-999,0.0,0.0,62,0.00,,,-99.99,FreeWX-Wi 1.01,2013-02-21 10:39:00,
2013-02-21 02:49:00,46.6,34.3,30.06,North,-999,0.0,0.0,62,0.00,,,-99.99,FreeWX-Wi 1.01,2013-02-21 10:49:00,
2013-02-21 02:59:00,46.6,34.7,30.06,North,-999,0.0,0.0,63,0.00,,,-99.99,FreeWX-Wi 1.01,2013-02-21 10:59:00,
2013-02-21 03:09:00,46.6,35.1,30.06,North,-999,0.0,0.0,64,0.00,,,-99.99,FreeWX-Wi 1.01,2013-02-21 11:09:00,
2013-02-21 03:19:00,46.4,34.9,30.06,North,-999,0.0,0.0,64,0.00,,,-99.99,FreeWX-Wi 1.01,2013-02-21 11:19:00,
2013-02-21 03:29:00,46.2,34.7,30.06,North,-999,0.0,0.0,64,0.00,,,-99.99,FreeWX-Wi 1.01,2013-02-21 11:29:00,
2013-02-21 03:39:00,46.2,35.1,30.06,North,-999,0.0,0.0,65,0.00,,,-99.99,FreeWX-Wi 1.01,2013-02-21 11:39:00,
2013-02-21 03:49:00,46.0,34.9,30.06,North,-999,0.0,0.0,65,0.00,,,-99.99,FreeWX-Wi 1.01,2013-02-21 11:49:00,
2013-02-21 03:59:00,45.9,34.7,30.06,North,-999,0.0,0.0,65,0.00,,,-99.99,FreeWX-Wi 1.01,2013-02-21 11:59:00,
2013-02-21 04:09:00,45.7,34.5,30.06,North,-999,0.0,0.0,65,0.00,,,-99.99,FreeWX-Wi 1.01,2013-02-21 12:09:00,
2013-02-21 04:19:00,45.3,34.3,30.06,North,-999,0.0,0.0,65,0.00,,,-99.99,FreeWX-Wi 1.01,2013-02-21 12:19:00,
2013-02-21 04:29:00,45.3,34.7,30.06,North,-999,0.0,0.0,66,0.00,,,-99.99,FreeWX-Wi 1.01,2013-02-21 12:29:00,
2013-02-21 04:39:00,45.3,34.7,30.06,North,-999,0.0,4.5,66,0.00,,,-99.99,FreeWX-Wi 1.01,2013-02-21 12:39:00,
2013-02-21 04:49:00,46.0,36.1,30.06,North,-999,0.0,5.8,68,0.00,,,-99.99,FreeWX-Wi 1.01,2013-02-21 12:49:00,
2013-02-21 04:59:00,46.2,36.0,30.09,NE,37,1.0,3.6,67,0.00,,,-99.99,FreeWX-Wi 1.01,2013-02-21 12:59:00,
2013-02-21 05:09:00,46.4,36.0,30.06,NNE,29,1.0,4.0,67,0.00,,,-99.99,FreeWX-Wi 1.01,2013-02-21 13:09:00,
2013-02-21 05:19:00,46.2,36.0,30.06,NE,46,1.0,4.9,67,0.00,,,-99.99,FreeWX-Wi 1.01,2013-02-21 13:19:00,
2013-02-21 05:29:00,46.0,35.8,30.09,NE,42,1.0,3.1,67,0.00,,,-99.99,FreeWX-Wi 1.01,2013-02-21 13:29:00,
2013-02-21 05:39:00,45.9,35.6,30.09,NE,52,1.0,4.0,67,0.00,,,-99.99,FreeWX-Wi 1.01,2013-02-21 13:39:00,
2013-02-21 05:49:00,45.9,35.6,30.09,North,-999,0.0,3.6,67,0.00,,,-99.99,FreeWX-Wi 1.01,2013-02-21 13:49:00,
2013-02-21 05:59:00,45.7,35.4,30.09,North,-999,0.0,4.0,67,0.00,,,-99.99,FreeWX-Wi 1.01,2013-02-21 13:59:00,
2013-02-21 06:09:00,45.5,35.2,30.09,North,-999,0.0,6.3,67,0.00,,,-99.99,FreeWX-Wi 1.01,2013-02-21 14:09:00,
2013-02-21 06:19:00,45.7,35.4,30.09,ENE,64,1.0,6.3,67,0.00,,,-99.99,FreeWX-Wi 1.01,2013-02-21 14:19:00,
2013-02-21 06:29:00,45.5,35.2,30.09,ENE,62,1.0,5.4,67,0.00,,,-99.99,FreeWX-Wi 1.01,2013-02-21 14:29:00,
2013-02-21 06:39:00,45.5,35.2,30.09,ENE,60,1.0,4.0,67,0.00,,,-99.99,FreeWX-Wi 1.01,2013-02-21 14:39:00,
2013-02-21 06:49:00,45.5,35.2,30.09,North,-999,0.0,4.0,67,0.00,,,-99.99,FreeWX-Wi 1.01,2013-02-21 14:49:00,
2013-02-21 06:59:00,45.5,35.2,30.09,ENE,60,1.0,5.4,67,0.00,,,-99.99,FreeWX-Wi 1.01,2013-02-21 14:59:00,
2013-02-21 07:09:00,45.5,35.2,30.09,NE,52,1.0,4.0,67,0.00,,,-99.99,FreeWX-Wi 1.01,2013-02-21 15:09:00,
2013-02-21 07:19:00,45.7,35.4,30.09,North,-999,0.0,0.0,67,0.00,,,-99.99,FreeWX-Wi 1.01,2013-02-21 15:19:00,
2013-02-21 07:29:00,46.0,35.8,30.09,North,-999,0.0,0.0,67,0.00,,,-99.99,FreeWX-Wi 1.01,2013-02-21 15:29:00,
2013-02-21 07:39:00,46.4,35.6,30.12,North,-999,0.0,4.9,66,0.00,,,-99.99,FreeWX-Wi 1.01,2013-02-21 15:39:00,
2013-02-21 07:49:00,46.9,36.1,30.12,NE,41,1.0,5.8,66,0.00,,,-99.99,FreeWX-Wi 1.01,2013-02-21 15:49:00,
2013-02-21 07:59:00,47.1,35.6,30.12,NE,49,2.0,5.8,64,0.00,,,-99.99,FreeWX-Wi 1.01,2013-02-21 15:59:00,
2013-02-21 08:09:00,47.5,35.1,30.12,ENE,57,2.0,5.8,62,0.00,,,-99.99,FreeWX-Wi 1.01,2013-02-21 16:09:00,
2013-02-21 08:19:00,47.8,35.4,30.12,ENE,61,2.0,6.3,62,0.00,,,-99.99,FreeWX-Wi 1.01,2013-02-21 16:19:00,
2013-02-21 08:29:00,48.0,34.0,30.12,ENE,62,2.0,6.3,58,0.00,,,-99.99,FreeWX-Wi 1.01,2013-02-21 16:29:00,
2013-02-21 08:39:00,48.2,32.4,30.15,ENE,59,3.0,6.7,54,0.00,,,-99.99,FreeWX-Wi 1.01,2013-02-21 16:39:00,
2013-02-21 08:49:00,48.7,31.5,30.15,ENE,67,3.0,6.3,51,0.00,,,-99.99,FreeWX-Wi 1.01,2013-02-21 16:49:00,
2013-02-21 08:59:00,49.1,31.3,30.15,ENE,70,3.0,8.7,50,0.00,,,-99.99,FreeWX-Wi 1.01,2013-02-21 16:59:00,
2013-02-21 09:09:00,49.5,30.6,30.15,ENE,72,3.0,5.8,48,0.00,,,-99.99,FreeWX-Wi 1.01,2013-02-21 17:09:00,
2013-02-21 09:19:00,50.0,30.6,30.15,ENE,71,3.0,6.3,47,0.00,,,-99.99,FreeWX-Wi 1.01,2013-02-21 17:19:00,
2013-02-21 09:29:00,50.4,30.4,30.15,ENE,62,3.0,6.3,46,0.00,,,-99.99,FreeWX-Wi 1.01,2013-02-21 17:29:00,
2013-02-21 09:39:00,50.7,30.7,30.15,NE,53,3.0,8.1,46,0.00,,,-99.99,FreeWX-Wi 1.01,2013-02-21 17:39:00,
2013-02-21 09:49:00,51.3,29.5,30.15,NE,50,3.0,5.8,43,0.00,,,-99.99,FreeWX-Wi 1.01,2013-02-21 17:49:00,
2013-02-21 09:59:00,51.4,29.7,30.15,NE,51,3.0,6.3,43,0.00,,,-99.99,FreeWX-Wi 1.01,2013-02-21 17:59:00,
2013-02-21 10:09:00,51.8,28.9,30.15,NE,55,3.0,7.2,41,0.00,,,-99.99,FreeWX-Wi 1.01,2013-02-21 18:09:00,
2013-02-21 10:19:00,52.3,28.8,30.15,ENE,59,3.0,5.8,40,0.00,,,-99.99,FreeWX-Wi 1.01,2013-02-21 18:19:00,
2013-02-21 10:29:00,52.7,28.4,30.18,ENE,67,4.0,7.6,39,0.00,,,-99.99,FreeWX-Wi 1.01,2013-02-21 18:29:00,
2013-02-21 10:39:00,52.9,28.6,30.18,ENE,65,4.0,10.1,39,0.00,,,-99.99,FreeWX-Wi 1.01,2013-02-21 18:39:00,
2013-02-21 10:49:00,53.4,29.1,30.18,ENE,67,4.0,5.8,39,0.00,,,-99.99,FreeWX-Wi 1.01,2013-02-21 18:49:00,
2013-02-21 10:59:00,53.6,28.6,30.18,ENE,68,4.0,6.3,38,0.00,,,-99.99,FreeWX-Wi 1.01,2013-02-21 18:59:00,
2013-02-21 11:09:00,54.1,29.1,30.18,ENE,69,4.0,7.6,38,0.00,,,-99.99,FreeWX-Wi 1.01,2013-02-21 19:09:00,
2013-02-21 11:19:00,54.5,28.8,30.18,ENE,61,4.0,6.3,37,0.00,,,-99.99,FreeWX-Wi 1.01,2013-02-21 19:19:00,
2013-02-21 11:29:00,54.9,29.1,30.18,ENE,59,4.0,8.3,37,0.00,,,-99.99,FreeWX-Wi 1.01,2013-02-21 19:29:00,
2013-02-21 11:39:00,55.2,28.8,30.18,NE,54,4.0,8.1,36,0.00,,,-99.99,FreeWX-Wi 1.01,2013-02-21 19:39:00,
2013-02-21 11:49:00,56.1,28.8,30.18,ENE,59,4.0,8.3,35,0.00,,,-99.99,FreeWX-Wi 1.01,2013-02-21 19:49:00,
2013-02-21 11:59:00,56.8,29.5,30.18,ENE,64,4.0,7.6,35,0.00,,,-99.99,FreeWX-Wi 1.01,2013-02-21 19:59:00,
2013-02-21 12:09:00,57.9,29.7,30.15,ENE,70,4.0,9.6,34,0.00,,,-99.99,FreeWX-Wi 1.01,2013-02-21 20:09:00,
2013-02-21 12:19:00,58.5,28.8,30.15,ENE,57,3.0,5.8,32,0.00,,,-99.99,FreeWX-Wi 1.01,2013-02-21 20:19:00,
2013-02-21 12:29:00,59.2,29.3,30.15,NE,45,3.0,5.4,32,0.00,,,-99.99,FreeWX-Wi 1.01,2013-02-21 20:29:00,
2013-02-21 12:39:00,59.9,29.1,30.15,NE,37,2.0,7.2,31,0.00,,,-99.99,FreeWX-Wi 1.01,2013-02-21 20:39:00,
2013-02-21 12:49:00,60.4,29.7,30.15,NNE,32,2.0,7.6,31,0.00,,,-99.99,FreeWX-Wi 1.01,2013-02-21 20:49:00,
2013-02-21 12:59:00,59.2,30.9,30.15,North,7,2.0,7.6,34,0.00,,,-99.99,FreeWX-Wi 1.01,2013-02-21 20:59:00,
2013-02-21 13:09:00,59.0,31.5,30.15,NNW,346,3.0,5.8,35,0.00,,,-99.99,FreeWX-Wi 1.01,2013-02-21 21:09:00,
2013-02-21 13:19:00,58.3,31.5,30.15,NNW,336,3.0,7.6,36,0.00,,,-99.99,FreeWX-Wi 1.01,2013-02-21 21:19:00,
2013-02-21 13:29:00,58.1,31.3,30.15,NNW,339,3.0,8.1,36,0.00,,,-99.99,FreeWX-Wi 1.01,2013-02-21 21:29:00,
2013-02-21 13:39:00,58.1,31.3,30.15,NNW,330,3.0,6.3,36,0.00,,,-99.99,FreeWX-Wi 1.01,2013-02-21 21:39:00,
2013-02-21 13:49:00,57.9,31.1,30.15,NNW,342,3.0,8.7,36,0.00,,,-99.99,FreeWX-Wi 1.01,2013-02-21 21:49:00,
2013-02-21 13:59:00,57.6,30.7,30.15,NNW,343,4.0,11.0,36,0.00,,,-99.99,FreeWX-Wi 1.01,2013-02-21 21:59:00,
2013-02-21 14:09:00,57.7,30.2,30.15,NNW,342,4.0,7.6,35,0.00,,,-99.99,FreeWX-Wi 1.01,2013-02-21 22:09:00,
2013-02-21 14:19:00,57.9,31.1,30.15,NNW,334,4.0,8.1,36,0.00,,,-99.99,FreeWX-Wi 1.01,2013-02-21 22:19:00,
2013-02-21 14:29:00,57.7,30.2,30.12,NNW,329,3.0,7.2,35,0.00,,,-99.99,FreeWX-Wi 1.01,2013-02-21 22:29:00,
2013-02-21 14:39:00,57.9,30.4,30.12,NNW,341,3.0,6.3,35,0.00,,,-99.99,FreeWX-Wi 1.01,2013-02-21 22:39:00,
2013-02-21 14:49:00,57.9,30.4,30.12,North,353,3.0,7.6,35,0.00,,,-99.99,FreeWX-Wi 1.01,2013-02-21 22:49:00,
2013-02-21 14:59:00,58.1,31.3,30.12,NNW,347,3.0,10.5,36,0.00,,,-99.99,FreeWX-Wi 1.01,2013-02-21 22:59:00,
2013-02-21 15:09:00,57.6,30.7,30.12,NNW,345,4.0,10.1,36,0.00,,,-99.99,FreeWX-Wi 1.01,2013-02-21 23:09:00,
2013-02-21 15:19:00,57.4,31.3,30.12,North,354,4.0,8.3,37,0.00,,,-99.99,FreeWX-Wi 1.01,2013-02-21 23:19:00,
2013-02-21 15:29:00,56.8,34.0,30.12,North,7,4.0,8.3,42,0.00,,,-99.99,FreeWX-Wi 1.01,2013-02-21 23:29:00,
2013-02-21 15:39:00,56.5,33.6,30.12,North,5,4.0,7.6,42,0.00,,,-99.99,FreeWX-Wi 1.01,2013-02-21 23:39:00,
2013-02-21 15:49:00,56.1,36.1,30.12,NNW,348,4.0,9.2,47,0.00,,,-99.99,FreeWX-Wi 1.01,2013-02-21 23:49:00,
2013-02-21 15:59:00,55.6,36.7,30.12,NNW,338,4.0,8.1,49,0.00,,,-99.99,FreeWX-Wi 1.01,2013-02-21 23:59:00,
2013-02-21 16:09:00,55.2,37.9,30.12,NNW,335,4.0,8.1,52,0.00,,,-99.99,FreeWX-Wi 1.01,2013-02-22 00:09:00,
2013-02-21 16:19:00,54.7,37.9,30.12,NNW,330,4.0,8.7,53,0.00,,,-99.99,FreeWX-Wi 1.01,2013-02-22 00:19:00,
2013-02-21 16:29:00,54.7,38.3,30.12,NNW,335,4.0,6.3,54,0.00,,,-99.99,FreeWX-Wi 1.01,2013-02-22 00:29:00,
2013-02-21 16:39:00,54.5,37.2,30.12,NNW,341,3.0,7.6,52,0.00,,,-99.99,FreeWX-Wi 1.01,2013-02-22 00:39:00,
2013-02-21 16:49:00,54.3,37.0,30.12,NNW,343,3.0,7.6,52,0.00,,,-99.99,FreeWX-Wi 1.01,2013-02-22 00:49:00,
2013-02-21 16:59:00,54.1,36.0,30.12,NNW,335,4.0,8.3,50,0.00,,,-99.99,FreeWX-Wi 1.01,2013-02-22 00:59:00,
2013-02-21 17:09:00,54.0,36.3,30.12,NNW,331,4.0,7.6,51,0.00,,,-99.99,FreeWX-Wi 1.01,2013-02-22 01:09:00,
2013-02-21 17:19:00,53.6,36.9,30.12,NNW,331,4.0,7.6,53,0.00,,,-99.99,FreeWX-Wi 1.01,2013-02-22 01:19:00,
2013-02-21 17:29:00,53.1,36.9,30.12,NNW,330,4.0,8.1,54,0.00,,,-99.99,FreeWX-Wi 1.01,2013-02-22 01:29:00,
2013-02-21 17:39:00,53.1,37.4,30.12,NNW,334,4.0,8.3,55,0.00,,,-99.99,FreeWX-Wi 1.01,2013-02-22 01:39:00,
2013-02-21 17:49:00,52.9,37.2,30.12,NNW,334,4.0,8.1,55,0.00,,,-99.99,FreeWX-Wi 1.01,2013-02-22 01:49:00,
2013-02-21 17:59:00,52.7,36.5,30.12,NNW,334,4.0,7.2,54,0.00,,,-99.99,FreeWX-Wi 1.01,2013-02-22 01:59:00,
2013-02-21 18:09:00,52.5,36.0,30.12,NNW,332,4.0,6.3,53,0.00,,,-99.99,FreeWX-Wi 1.01,2013-02-22 02:09:00,
2013-02-21 18:19:00,52.3,36.7,30.12,NNW,329,4.0,8.3,55,0.00,,,-99.99,FreeWX-Wi 1.01,2013-02-22 02:19:00,
2013-02-21 18:29:00,52.0,37.6,30.12,NNW,331,4.0,7.6,58,0.00,,,-99.99,FreeWX-Wi 1.01,2013-02-22 02:29:00,
2013-02-21 18:39:00,51.6,38.1,30.12,NNW,334,4.0,8.1,60,0.00,,,-99.99,FreeWX-Wi 1.01,2013-02-22 02:39:00,
2013-02-21 18:49:00,51.4,37.6,30.12,NNW,337,4.0,7.6,59,0.00,,,-99.99,FreeWX-Wi 1.01,2013-02-22 02:49:00,
2013-02-21 18:59:00,51.3,37.4,30.12,NNW,338,3.0,7.6,59,0.00,,,-99.99,FreeWX-Wi 1.01,2013-02-22 02:59:00,
2013-02-21 19:09:00,51.3,37.0,30.15,NNW,344,2.0,4.0,58,0.00,,,-99.99,FreeWX-Wi 1.01,2013-02-22 03:09:00,
2013-02-21 19:19:00,51.3,37.4,30.15,NNW,345,2.0,5.4,59,0.00,,,-99.99,FreeWX-Wi 1.01,2013-02-22 03:19:00,
2013-02-21 19:29:00,51.1,37.8,30.15,NNE,15,1.0,5.8,60,0.00,,,-99.99,FreeWX-Wi 1.01,2013-02-22 03:29:00,
2013-02-21 19:40:00,50.9,37.6,30.15,North,-999,0.0,3.6,60,0.00,,,-99.99,FreeWX-Wi 1.01,2013-02-22 03:40:00,
2013-02-21 19:50:00,50.7,37.4,30.15,North,-999,0.0,0.0,60,0.00,,,-99.99,FreeWX-Wi 1.01,2013-02-22 03:50:00,
2013-02-21 20:00:00,50.5,37.2,30.15,North,-999,0.0,0.0,60,0.00,,,-99.99,FreeWX-Wi 1.01,2013-02-22 04:00:00,
2013-02-21 20:10:00,50.5,37.2,30.15,North,-999,0.0,0.0,60,0.00,,,-99.99,FreeWX-Wi 1.01,2013-02-22 04:10:00,
2013-02-21 20:20:00,50.4,36.5,30.15,North,-999,0.0,0.0,59,0.00,,,-99.99,FreeWX-Wi 1.01,2013-02-22 04:20:00,
2013-02-21 20:30:00,50.4,36.5,30.15,North,-999,0.0,0.0,59,0.00,,,-99.99,FreeWX-Wi 1.01,2013-02-22 04:30:00,
2013-02-21 20:40:00,50.2,36.0,30.15,North,-999,0.0,0.0,58,0.00,,,-99.99,FreeWX-Wi 1.01,2013-02-22 04:40:00,
2013-02-21 20:50:00,50.0,35.8,30.15,North,-999,0.0,0.0,58,0.00,,,-99.99,FreeWX-Wi 1.01,2013-02-22 04:50:00,
2013-02-21 21:00:00,49.8,36.1,30.15,North,-999,0.0,0.0,59,0.00,,,-99.99,FreeWX-Wi 1.01,2013-02-22 05:00:00,
2013-02-21 21:10:00,49.6,36.0,30.15,North,-999,0.0,0.0,59,0.00,,,-99.99,FreeWX-Wi 1.01,2013-02-22 05:10:00,
2013-02-21 21:20:00,49.5,35.8,30.15,North,-999,0.0,0.0,59,0.00,,,-99.99,FreeWX-Wi 1.01,2013-02-22 05:20:00,
2013-02-21 21:30:00,49.3,35.6,30.15,North,-999,0.0,0.0,59,0.00,,,-99.99,FreeWX-Wi 1.01,2013-02-22 05:30:00,
2013-02-21 21:40:00,49.1,35.4,30.15,North,-999,0.0,0.0,59,0.00,,,-99.99,FreeWX-Wi 1.01,2013-02-22 05:40:00,
2013-02-21 21:50:00,49.1,35.8,30.15,North,-999,0.0,0.0,60,0.00,,,-99.99,FreeWX-Wi 1.01,2013-02-22 05:50:00,
2013-02-21 22:00:00,48.9,35.6,30.18,North,-999,0.0,0.0,60,0.00,,,-99.99,FreeWX-Wi 1.01,2013-02-22 06:00:00,
2013-02-21 22:10:00,48.9,35.6,30.18,North,-999,0.0,0.0,60,0.00,,,-99.99,FreeWX-Wi 1.01,2013-02-22 06:10:00,
2013-02-21 22:20:00,48.7,35.4,30.18,North,-999,0.0,0.0,60,0.00,,,-99.99,FreeWX-Wi 1.01,2013-02-22 06:20:00,
2013-02-21 22:30:00,48.7,35.4,30.18,North,-999,0.0,0.0,60,0.00,,,-99.99,FreeWX-Wi 1.01,2013-02-22 06:30:00,
2013-02-21 22:40:00,48.6,35.8,30.18,North,-999,0.0,0.0,61,0.00,,,-99.99,FreeWX-Wi 1.01,2013-02-22 06:40:00,
2013-02-21 22:50:00,48.6,35.8,30.18,North,-999,0.0,0.0,61,0.00,,,-99.99,FreeWX-Wi 1.01,2013-02-22 06:50:00,
2013-02-21 23:00:00,48.4,35.6,30.18,North,-999,0.0,0.0,61,0.00,,,-99.99,FreeWX-Wi 1.01,2013-02-22 07:00:00,
2013-02-21 23:10:00,48.4,36.0,30.18,North,-999,0.0,0.0,62,0.00,,,-99.99,FreeWX-Wi 1.01,2013-02-22 07:10:00,
2013-02-21 23:20:00,48.4,36.0,30.18,North,-999,0.0,0.0,62,0.00,,,-99.99,FreeWX-Wi 1.01,2013-02-22 07:20:00,
2013-02-21 23:30:00,48.4,36.0,30.18,North,-999,0.0,0.0,62,0.00,,,-99.99,FreeWX-Wi 1.01,2013-02-22 07:30:00,
2013-02-21 23:40:00,48.2,35.8,30.18,North,-999,0.0,0.0,62,0.00,,,-99.99,FreeWX-Wi 1.01,2013-02-22 07:40:00,
2013-02-21 23:50:00,48.0,36.0,30.18,North,-999,0.0,0.0,63,0.00,,,-99.99,FreeWX-Wi 1.01,2013-02-22 07:50:00,